Le nostre stazioni meteo in Italia

Pubblicità
Il mio iltempo24.it
Pantelleria, Italia (16470): Temperatura & dewpoint: 22.03.2017 12:00:00 - 28.03.2017 12:00:00 (CEST)Pantelleria, Italia (16470): velocità del vento: 22.03.2017 12:00:00 - 28.03.2017 12:00:00 (CEST)Pantelleria, Italia (16470): direzione del vento: 22.03.2017 12:00:00 - 28.03.2017 12:00:00 (CEST)Pantelleria, Italia (16470): reduced air pressure: 22.03.2017 12:00:00 - 28.03.2017 12:00:00 (CEST)Pantelleria, Italia (16470): visibility: 22.03.2017 12:00:00 - 28.03.2017 12:00:00 (CEST)Pantelleria, Italia (16470): ore di luce: 22.03.2017 12:00:00 - 28.03.2017 12:00:00 (CEST)
Data & Tempo tt [°C] td [°C] ff [km/h] ff [kn] dd ppp [hPa] vv [km] sd [min]
28.03.2017 12:00:00 - - - - - - - -
28.03.2017 11:00:00 14,0 10,2 24 13 N 1021,2 30 60
28.03.2017 10:00:00 13,4 10,0 24 13 NNO 1020,8 30 60
28.03.2017 09:00:00 12,8 9,4 21 11 NNO 1020,6 30 30
28.03.2017 08:00:00 12,0 8,7 22 12 NNO 1020,6 30 6
28.03.2017 07:00:00 12,0 8,7 21 11 NO 1020,4 25 -
28.03.2017 06:00:00 - - - - - - - -
28.03.2017 05:00:00 - - - - - - - -
28.03.2017 04:00:00 - - - - - - - -
28.03.2017 03:00:00 - - - - - - - -
28.03.2017 02:00:00 - - - - - - - -
28.03.2017 01:00:00 - - - - - - - -
28.03.2017 00:00:00 - - - - - - - -
27.03.2017 23:00:00 - - - - - - - -
27.03.2017 22:00:00 - - - - - - - -
27.03.2017 21:00:00 - - - - - - - -
27.03.2017 20:00:00 13,4 11,1 15 8 N 1019,1 15 24
27.03.2017 19:00:00 14,0 11,9 18 10 N 1018,6 20 60
27.03.2017 18:00:00 15,6 13,4 18 10 N 1018,5 20 60
27.03.2017 17:00:00 15,0 12,5 18 10 N 1018,5 20 60
27.03.2017 16:00:00 14,0 10,6 16 9 NNE 1018,6 20 60
27.03.2017 15:00:00 15,0 12,3 16 9 N 1018,5 25 60
27.03.2017 14:00:00 15,2 12,5 18 10 NNE 1019,1 25 60
27.03.2017 13:00:00 15,0 12,3 22 12 NNE 1019,2 25 60
27.03.2017 12:00:00 15,0 12,0 18 10 NNE 1019,2 25 60
27.03.2017 11:00:00 15,0 11,4 21 11 NNE 1019,1 25 60
27.03.2017 10:00:00 14,0 10,4 24 13 NNE 1018,7 25 60
27.03.2017 09:00:00 12,6 9,1 22 12 NE 1018,4 25 36
27.03.2017 08:00:00 11,2 7,9 16 9 NE 1018,0 20 0
27.03.2017 07:00:00 11,0 8,0 15 8 NNE 1017,9 15 0
27.03.2017 06:00:00 - - - - - - - -
27.03.2017 05:00:00 - - - - - - - -
27.03.2017 04:00:00 - - - - - - - -
27.03.2017 03:00:00 - - - - - - - -
27.03.2017 02:00:00 - - - - - - - -
27.03.2017 01:00:00 - - - - - - - -
27.03.2017 00:00:00 - - - - - - - -
26.03.2017 23:00:00 - - - - - - - -
26.03.2017 22:00:00 - - - - - - - -
26.03.2017 21:00:00 - - - - - - - -
26.03.2017 20:00:00 12,6 9,6 15 8 NNE 1018,0 12 30
26.03.2017 19:00:00 13,8 11,0 18 10 NNE 1018,1 15 60
26.03.2017 18:00:00 14,0 11,2 18 10 N 1018,4 15 60
26.03.2017 17:00:00 14,6 11,7 21 11 N 1018,5 15 60
26.03.2017 16:00:00 14,8 12,0 16 9 NNO 1018,7 15 60
26.03.2017 15:00:00 14,4 11,0 18 10 N 1019,3 15 60
26.03.2017 14:00:00 15,0 11,4 16 9 N 1019,6 15 60
26.03.2017 13:00:00 14,8 11,4 15 8 N 1020,5 15 60
26.03.2017 12:00:00 14,6 11,2 18 10 N 1020,5 10 48
26.03.2017 11:00:00 14,0 10,6 13 7 N 1020,7 10 48
26.03.2017 10:00:00 13,4 10,0 16 9 N 1020,4 10 12
26.03.2017 09:00:00 13,0 9,8 16 9 NNE 1020,5 10 0
26.03.2017 08:00:00 12,8 9,6 11 6 NNE 1020,5 10 0
26.03.2017 07:00:00 13,0 9,8 16 9 N 1020,6 10 0
26.03.2017 06:00:00 - - - - - - - -
26.03.2017 05:00:00 - - - - - - - -
26.03.2017 04:00:00 - - - - - - - -
26.03.2017 03:00:00 - - - - - - - -
26.03.2017 02:00:00 - - - - - - - -
26.03.2017 01:00:00 - - - - - - - -
26.03.2017 00:00:00 - - - - - - - -
25.03.2017 23:00:00 - - - - - - - -
25.03.2017 22:00:00 - - - - - - - -
25.03.2017 21:00:00 - - - - - - - -
25.03.2017 20:00:00 15,8 13,5 2 1 SSO 1019,7 7 0
25.03.2017 19:00:00 16,2 14,0 8 4 SSO 1019,5 12 0
25.03.2017 18:00:00 16,4 14,2 15 8 S 1019,3 12 18
25.03.2017 17:00:00 18,6 14,7 22 12 S 1018,9 12 60
25.03.2017 16:00:00 17,2 14,8 18 10 E 1019,2 15 60
25.03.2017 15:00:00 17,6 14,7 18 10 E 1019,3 15 60
25.03.2017 14:00:00 18,2 14,7 16 9 E 1019,4 15 60
25.03.2017 13:00:00 17,0 14,1 24 13 ENE 1020,3 12 60
25.03.2017 12:00:00 16,6 14,1 24 13 E 1020,5 12 60
25.03.2017 11:00:00 16,0 13,5 22 12 ESE 1019,8 12 42
25.03.2017 10:00:00 16,4 13,1 5 3 NNE 1019,6 12 36
25.03.2017 09:00:00 15,0 12,5 11 6 N 1019,4 10 0
25.03.2017 08:00:00 14,6 12,6 8 4 NNO 1018,9 10 0
25.03.2017 07:00:00 - - - - - - - -
25.03.2017 06:00:00 - - - - - - - -
25.03.2017 05:00:00 - - - - - - - -
25.03.2017 04:00:00 - - - - - - - -
25.03.2017 03:00:00 - - - - - - - -
25.03.2017 02:00:00 - - - - - - - -
25.03.2017 01:00:00 - - - - - - - -
25.03.2017 00:00:00 - - - - - - - -
24.03.2017 23:00:00 - - - - - - - -
24.03.2017 22:00:00 - - - - - - - -
24.03.2017 21:00:00 - - - - - - - -
24.03.2017 20:00:00 16,2 8,2 29 16 SE 1018,1 15 12
24.03.2017 19:00:00 16,4 9,8 28 15 SE 1018,4 25 60
24.03.2017 18:00:00 16,4 11,1 29 16 SSE 1018,4 25 60
24.03.2017 17:00:00 16,8 11,5 31 17 SSE 1018,6 25 60
24.03.2017 16:00:00 17,0 12,7 31 17 SSE 1019,0 15 60
24.03.2017 15:00:00 17,2 14,1 26 14 SSE 1019,4 15 60
24.03.2017 14:00:00 17,4 12,7 26 14 SSE 1019,7 15 60
24.03.2017 13:00:00 18,0 13,3 21 11 SSE 1019,7 10 60
24.03.2017 12:00:00 17,0 12,7 26 14 SSE 1019,7 15 60
24.03.2017 11:00:00 16,4 13,0 24 13 SSE 1019,7 12 60
24.03.2017 10:00:00 15,2 12,2 24 13 SSE 1019,5 12 48
24.03.2017 09:00:00 15,0 10,8 22 12 SSE 1018,9 12 0
24.03.2017 08:00:00 13,2 9,8 15 8 SSE 1019,0 12 0
24.03.2017 07:00:00 - - - - - - - -
24.03.2017 06:00:00 - - - - - - - -
24.03.2017 05:00:00 - - - - - - - -
24.03.2017 04:00:00 - - - - - - - -
24.03.2017 03:00:00 - - - - - - - -
24.03.2017 02:00:00 - - - - - - - -
24.03.2017 01:00:00 - - - - - - - -
24.03.2017 00:00:00 - - - - - - - -
23.03.2017 23:00:00 - - - - - - - -
23.03.2017 22:00:00 - - - - - - - -
23.03.2017 21:00:00 - - - - - - - -
23.03.2017 20:00:00 14,8 9,6 18 10 S 1017,9 10 0
23.03.2017 19:00:00 15,2 12,7 8 4 N 1017,5 15 18
23.03.2017 18:00:00 17,2 12,7 21 11 S 1017,3 20 60
23.03.2017 17:00:00 17,8 13,3 24 13 S 1017,3 20 60
23.03.2017 16:00:00 18,6 12,8 24 13 S 1017,3 25 60
23.03.2017 15:00:00 18,4 13,7 24 13 SSO 1018,0 30 60
23.03.2017 14:00:00 18,2 13,5 22 12 S 1018,5 30 60
23.03.2017 13:00:00 17,6 12,7 21 11 S 1018,7 25 60
23.03.2017 12:00:00 17,6 11,9 22 12 SSE 1018,8 20 60
23.03.2017 11:00:00 17,2 11,9 18 10 S 1018,5 20 60
23.03.2017 10:00:00 17,0 13,1 15 8 S 1018,6 15 60
23.03.2017 09:00:00 14,6 11,0 11 6 S 1018,4 12 24
23.03.2017 08:00:00 11,8 8,5 8 4 SSE 1018,3 10 0
23.03.2017 07:00:00 - - - - - - - -
23.03.2017 06:00:00 - - - - - - - -
23.03.2017 05:00:00 - - - - - - - -
23.03.2017 04:00:00 - - - - - - - -
23.03.2017 03:00:00 - - - - - - - -
23.03.2017 02:00:00 - - - - - - - -
23.03.2017 01:00:00 - - - - - - - -
23.03.2017 00:00:00 - - - - - - - -
22.03.2017 23:00:00 - - - - - - - -
22.03.2017 22:00:00 - - - - - - - -
22.03.2017 21:00:00 - - - - - - - -
22.03.2017 20:00:00 13,0 9,8 5 3 NE 1016,5 8 0
22.03.2017 19:00:00 14,0 10,8 8 4 NE 1016,4 10 24
22.03.2017 18:00:00 14,8 11,6 11 6 NNO 1016,3 12 60
22.03.2017 17:00:00 14,4 11,2 15 8 NNO 1016,3 12 60
22.03.2017 16:00:00 15,4 12,2 16 9 NO 1016,3 12 48
22.03.2017 15:00:00 15,6 12,4 13 7 NO 1016,4 15 60
22.03.2017 14:00:00 15,6 12,4 18 10 NO 1016,3 25 60
22.03.2017 13:00:00 15,6 12,2 18 10 NO 1016,4 25 60
22.03.2017 12:00:00 - - - - - - - -

tt = Temperatura
td = dewpoint
ff = velocità del vento
dd = direzione del vento
ppp = reduced air pressure
vv = visibility
sd = ore di luce

Stazioni seguenti

WeatherPro
AMSI
MeteoEarth